This is the latest recevied weather packets stored in our database for station/object UB3AVW-13. If no packets are shown the sender has not sent any weather packets the latest 1 day(s).
| Time | Temp. | Humidity | Pressure | Rain* | Wind** | Luminosity | Snow |
|---|---|---|---|---|---|---|---|
| 1778093687 | 15° C | 74% | 989.3 hPa | - | 2.24 m/s, 47° | - | - |
| 1778093080 | 15° C | 74% | 989.3 hPa | - | 2.24 m/s, 47° | - | - |
| 1778092777 | 15° C | 74% | 989.3 hPa | - | 2.24 m/s, 47° | - | - |
| 1778091865 | 15° C | 74% | 989.3 hPa | - | 2.68 m/s, 47° | - | - |
| 1778091258 | 15° C | 74% | 989.3 hPa | - | 2.68 m/s, 47° | - | - |
| 1778090954 | 15° C | 74% | 988.3 hPa | - | 2.68 m/s, 31° | - | - |
| 1778090650 | 15° C | 74% | 989.3 hPa | - | 2.68 m/s, 47° | - | - |
| 1778090043 | 15° C | 74% | 988.3 hPa | - | 2.68 m/s, 27° | - | - |
| 1778088892 | 15° C | 72% | 988.3 hPa | - | 2.68 m/s, 27° | - | - |
| 1778088829 | 15° C | 72% | 988.3 hPa | - | 2.68 m/s, 27° | - | - |
| 1778087918 | 16.11° C | 68% | 988.4 hPa | - | 2.68 m/s, 19° | - | - |
| 1778086400 | 16.11° C | 68% | 988.4 hPa | - | 2.68 m/s, 351° | - | - |
| 1778083973 | 18.33° C | 62% | 988.6 hPa | - | 3.13 m/s, 357° | - | - |
| 1778083669 | 18.33° C | 61% | 988.6 hPa | - | 3.13 m/s, 357° | - | - |
| 1778082758 | 18.33° C | 61% | 987.6 hPa | - | 3.58 m/s, 347° | - | - |
| 1778081848 | 18.89° C | 56% | 987.6 hPa | - | 3.58 m/s, 330° | - | - |
| 1778081668 | 18.89° C | 56% | 987.6 hPa | - | 3.58 m/s, 330° | - | - |
| 1778081544 | 18.89° C | 56% | 987.6 hPa | - | 3.58 m/s, 330° | - | - |
| 1778080937 | 18.89° C | 56% | 987.6 hPa | - | 3.58 m/s, 330° | - | - |
| 1778080027 | 18.89° C | 56% | 987.6 hPa | - | 3.58 m/s, 330° | - | - |
| 1778079117 | 18.89° C | 56% | 988.6 hPa | - | 3.58 m/s, 314° | - | - |
| 1778078206 | 20.56° C | 55% | 988.7 hPa | - | 3.58 m/s, 314° | - | - |
| 1778077903 | 20.56° C | 55% | 988.7 hPa | - | 3.58 m/s, 314° | - | - |
| 1778077599 | 20.56° C | 55% | 988.8 hPa | - | 3.58 m/s, 314° | - | - |
| 1778075170 | 20.56° C | 50% | 988.7 hPa | - | 3.58 m/s, 303° | - | - |
* Rain since midnight (hover to see other rain measurements)
** Current wind speed in m/s (hover to see current wind gust speed)